Chanute, KS

10:05 AM CST on February 07, 2016 (GMT -0600)
Chanute Martin Johnson

Weather History for KCNU - March, 2014

Change the Weather History Date:

Tuesday, March 11, 2014

  Actual Average Record
Temperature  
Mean Temperature 60 °F 46 °F  
Max Temperature 79 °F 56 °F 88 °F (1967)
Min Temperature 40 °F 35 °F -4 °F (1948)
Degree Days  
Heating Degree Days 5 19  
Month to date heating degree days 326 234  
Since 1 July heating degree days 4346 3806  
Cooling Degree Days 0 0  
Month to date cooling degree days 0 0  
Year to date cooling degree days 0 0  
Growing Degree Days 11 (Base 50)    
Moisture  
Dew Point 41 °F    
Average Humidity 56    
Maximum Humidity 80    
Minimum Humidity 32    
Precipitation  
Precipitation 0.00 in 0.09 in 1.74 in (1990)
Month to date precipitation 0.09 1.01  
Year to date precipitation 1.06 4.17  
Sea Level Pressure  
Sea Level Pressure 29.58 in    
Wind  
Wind Speed 19 mph (SSW)    
Max Wind Speed 38 mph    
Max Gust Speed 49 mph    
Visibility 10 miles    
Events      
T = Trace of Precipitation, MM = Missing Value Source: NWS Daily Summary

Daily Weather History Graph

Daily Weather History Graph

Search for Another Location

Airport or City:

Trip Planner

Search our weather history database for the weather conditions in past years. The results will help you decide how hot, cold, wet, or windy it might be!

Date:

Astronomy

Mar. 11, 2014 Rise Set
Actual Time 7:38 AM CDT 7:25 PM CDT
Civil Twilight 7:12 AM CDT 7:51 PM CDT
Nautical Twilight 6:42 AM CDT 8:21 PM CDT
Astronomical Twilight 6:11 AM CDT 8:52 PM CDT
Moon 3:06 PM CDT (3/11) 4:29 AM CDT (3/11)
Length of Visible Light 12h 38m
Length of Day
11h 46m
Waxing Gibbous, 78% of the Moon is Illuminated
Mar 11
Waxing Gibbous
Mar 16
Full
Mar 23
Last Quarter
Mar 30
New
Apr 7
First Quarter

Hourly Weather History & Observations

Time (CDT) Temp. Windchill Dew Point Humidity Pressure Visibility Wind Dir Wind Speed Gust Speed Precip Events Conditions
12:52 AM 50.0 °F - 30.0 °F 46% 29.70 in 10.0 mi South 10.4 mph - N/A   Clear
1:52 AM 50.0 °F - 30.9 °F 48% 29.68 in 10.0 mi South 11.5 mph - N/A   Clear
2:52 AM 45.0 °F 40.1 °F 32.0 °F 60% 29.66 in 10.0 mi South 9.2 mph - N/A   Clear
3:52 AM 50.0 °F - 37.0 °F 61% 29.62 in 10.0 mi South 11.5 mph - N/A   Clear
4:52 AM 51.1 °F - 37.9 °F 61% 29.59 in 10.0 mi South 15.0 mph - N/A   Clear
5:52 AM 50.0 °F - 39.9 °F 68% 29.58 in 10.0 mi South 13.8 mph - N/A   Clear
6:52 AM 48.9 °F - 42.1 °F 77% 29.57 in 10.0 mi South 13.8 mph - N/A   Clear
7:52 AM 50.0 °F - 44.1 °F 80% 29.56 in 10.0 mi South 15.0 mph - N/A   Clear
8:52 AM 55.0 °F - 46.9 °F 74% 29.55 in 10.0 mi South 16.1 mph - N/A   Clear
9:52 AM 61.0 °F - 48.9 °F 64% 29.54 in 10.0 mi South 18.4 mph - N/A   Clear
10:52 AM 64.9 °F - 51.1 °F 61% 29.52 in 10.0 mi South 20.7 mph - N/A   Clear
11:52 AM 69.1 °F - 51.1 °F 53% 29.50 in 10.0 mi South 16.1 mph - N/A   Clear
12:52 PM 73.0 °F - 51.1 °F 46% 29.47 in 10.0 mi South 19.6 mph 26.5 mph N/A   Clear
1:52 PM 75.9 °F - 51.1 °F 42% 29.43 in 10.0 mi South 19.6 mph 25.3 mph N/A   Clear
2:52 PM 75.9 °F - 50.0 °F 40% 29.42 in 10.0 mi South 18.4 mph 26.5 mph N/A   Clear
3:52 PM 77.0 °F - 51.1 °F 40% 29.41 in 10.0 mi South 13.8 mph - N/A   Partly Cloudy
4:52 PM 79.0 °F - 46.9 °F 32% 29.40 in 10.0 mi SSW 16.1 mph - N/A   Overcast
5:52 PM 77.0 °F - 46.0 °F 33% 29.39 in 10.0 mi SSW 15.0 mph - N/A   Mostly Cloudy
6:19 PM 75.9 °F - 41.0 °F 29% 29.43 in 10.0 mi West 21.9 mph 28.8 mph N/A   Mostly Cloudy
6:33 PM 62.1 °F - 41.0 °F 46% 29.48 in 10.0 mi NW 28.8 mph 40.3 mph N/A   Scattered Clouds
6:52 PM 57.0 °F - 39.9 °F 53% 29.52 in 10.0 mi NNW 32.2 mph 43.7 mph N/A   Partly Cloudy
7:29 PM 53.1 °F - 37.9 °F 57% 29.58 in 10.0 mi NNW 23.0 mph 36.8 mph N/A   Mostly Cloudy
7:52 PM 51.1 °F - 37.0 °F 59% 29.60 in 10.0 mi North 24.2 mph 40.3 mph N/A   Partly Cloudy
8:52 PM 48.0 °F - 36.0 °F 63% 29.68 in 10.0 mi NNW 26.5 mph 39.1 mph N/A   Clear
9:35 PM 46.0 °F 36.9 °F 36.0 °F 68% 29.74 in 10.0 mi North 28.8 mph 46.0 mph N/A   Mostly Cloudy
9:52 PM 45.0 °F 36.4 °F 36.0 °F 71% 29.77 in 10.0 mi North 23.0 mph 41.4 mph N/A   Overcast
10:52 PM 43.0 °F 32.9 °F 34.0 °F 71% 29.83 in 10.0 mi North 27.6 mph 47.2 mph N/A   Overcast
11:52 PM 42.1 °F 31.7 °F 32.0 °F 67% 29.90 in 10.0 mi North 27.6 mph 48.3 mph N/A   Overcast